[Date Prev][Date Next][Thread Prev][Thread Next] - [Date Index][Thread Index][Author Index]
2 Line ISS Keps 4-4
- Subject: [sarex] 2 Line ISS Keps 4-4
- From: "Dave Larsen PhD" <doc@xxxxxxxxxxx>
- Date: Mon, 3 Apr 2006 20:07:55 -0700
ISS
1 25544U 98067A 06093.90762928 .00012199 00000-0 84769-4 0 6639
2 25544 051.6422 209.7743 0009383 075.3168 026.6203 15.74852653421458
----
Via the sarex mailing list at AMSAT.ORG courtesy of AMSAT-NA.
To unsubscribe, send "unsubscribe sarex" to Majordomo@amsat.org
AMSAT Home